| time (UTC) | temp F | wind direction | speed MPH | gust MPH | rain 1hr in | rain 24hr in | rain mn in | humidity % | barometer mb |
| 20260510174701 | 88 | 145 | 6.0 | 7.0 | 0.00 | 0.00 | 0.00 | 71 | 1015.0 |
| 20260510174159 | 87 | 103 | 8.0 | 10.0 | 0.00 | 0.00 | 0.00 | 73 | 1015.3 |
| 20260510173655 | 87 | 82 | 7.0 | 9.0 | 0.00 | 0.00 | 0.00 | 75 | 1015.0 |
| 20260510173151 | 89 | 92 | 12.0 | 15.0 | 0.00 | 0.00 | 0.00 | 71 | 1015.0 |
| 20260510172646 | 87 | 111 | 4.0 | 5.0 | 0.00 | 0.00 | 0.00 | 73 | 1015.0 |
| 20260510172143 | 88 | 61 | 7.0 | 9.0 | 0.00 | 0.00 | 0.00 | 72 | 1015.2 |
| 20260510171640 | 88 | 141 | 10.0 | 10.0 | 0.00 | 0.00 | 0.00 | 71 | 1015.3 |
| 20260510171137 | 87 | 132 | 4.0 | 7.0 | 0.00 | 0.00 | 0.00 | 73 | 1015.1 |
| 20260510170633 | 87 | 81 | 8.0 | 10.0 | 0.00 | 0.00 | 0.00 | 73 | 1015.3 |
| 20260510170130 | 86 | 74 | 7.0 | 10.0 | 0.00 | 0.00 | 0.00 | 74 | 1015.1 |
| 20260510165626 | 87 | 90 | 7.0 | 12.0 | 0.00 | 0.00 | 0.00 | 75 | 1015.1 |
| 20260510165121 | 86 | 94 | 6.0 | 10.0 | 0.00 | 0.00 | 0.00 | 75 | 1015.2 |
| 20260510164619 | 87 | 99 | 6.0 | 9.0 | 0.00 | 0.00 | 0.00 | 74 | 1015.2 |
| 20260510164116 | 86 | 42 | 8.0 | 10.0 | 0.00 | 0.00 | 0.00 | 74 | 1014.9 |
| 20260510163611 | 86 | 135 | 5.0 | 7.0 | 0.00 | 0.00 | 0.00 | 74 | 1015.1 |
| 20260510163108 | 85 | 80 | 2.0 | 3.0 | 0.00 | 0.00 | 0.00 | 78 | 1014.8 |
| 20260510162603 | 86 | 59 | 3.0 | 3.0 | 0.00 | 0.00 | 0.00 | 77 | 1015.0 |
| 20260510162059 | 86 | 106 | 4.0 | 5.0 | 0.00 | 0.00 | 0.00 | 77 | 1015.0 |
| 20260510161555 | 85 | 103 | 4.0 | 7.0 | 0.00 | 0.00 | 0.00 | 76 | 1014.9 |
| 20260510161052 | 86 | 132 | 5.0 | 5.0 | 0.00 | 0.00 | 0.00 | 75 | 1014.8 |
| 20260510160549 | 84 | 114 | 4.0 | 5.0 | 0.00 | 0.00 | 0.00 | 78 | 1014.8 |
| 20260510160048 | 84 | 95 | 4.0 | 5.0 | 0.00 | 0.00 | 0.00 | 78 | 1015.2 |
| 20260510155545 | 85 | 69 | 6.0 | 9.0 | 0.00 | 0.00 | 0.00 | 77 | 1015.0 |
| 20260510155042 | 85 | 101 | 0.0 | 0.0 | 0.00 | 0.00 | 0.00 | 79 | 1015.0 |
| 20260510154537 | 84 | 101 | 3.0 | 3.0 | 0.00 | 0.00 | 0.00 | 79 | 1014.8 |
| 20260510154033 | 83 | 66 | 2.0 | 3.0 | 0.00 | 0.00 | 0.00 | 80 | 1015.0 |
| 20260510153528 | 85 | 140 | 8.0 | 10.0 | 0.00 | 0.00 | 0.00 | 79 | 1015.0 |
| 20260510153025 | 84 | 61 | 3.0 | 3.0 | 0.00 | 0.00 | 0.00 | 81 | 1015.0 |
| 20260510152522 | 83 | 75 | 2.0 | 2.0 | 0.00 | 0.00 | 0.00 | 81 | 1014.8 |
| 20260510152018 | 84 | 115 | 3.0 | 3.0 | 0.00 | 0.00 | 0.00 | 81 | 1014.8 |
| 20260510151515 | 83 | 85 | 4.0 | 5.0 | 0.00 | 0.00 | 0.00 | 82 | 1015.0 |
| 20260510151013 | 84 | 203 | 3.0 | 3.0 | 0.00 | 0.00 | 0.00 | 81 | 1014.9 |
| 20260510150507 | 82 | 151 | 7.0 | 14.0 | 0.00 | 0.00 | 0.00 | 83 | 1014.7 |
| 20260510150004 | 82 | 125 | 3.0 | 3.0 | 0.00 | 0.00 | 0.00 | 83 | 1015.0 |
| 20260510145501 | 82 | 129 | 3.0 | 3.0 | 0.00 | 0.00 | 0.00 | 85 | 1014.9 |
| 20260510144957 | 81 | 122 | 7.0 | 9.0 | 0.00 | 0.00 | 0.00 | 85 | 1014.6 |
| 20260510144454 | 82 | 167 | 4.0 | 5.0 | 0.00 | 0.00 | 0.00 | 85 | 1014.5 |
| 20260510143949 | 81 | 167 | 4.0 | 5.0 | 0.00 | 0.00 | 0.00 | 85 | 1014.5 |
| 20260510143445 | 80 | 149 | 3.0 | 5.0 | 0.00 | 0.00 | 0.00 | 87 | 1014.4 |
| 20260510142942 | 80 | 163 | 7.0 | 10.0 | 0.00 | 0.00 | 0.00 | 87 | 1014.3 |
| 20260510142439 | 79 | 150 | 7.0 | 9.0 | 0.00 | 0.00 | 0.00 | 89 | 1014.5 |
| 20260510141935 | 79 | 182 | 3.0 | 3.0 | 0.00 | 0.00 | 0.00 | 90 | 1014.6 |
| 20260510141432 | 79 | 129 | 4.0 | 5.0 | 0.00 | 0.00 | 0.00 | 90 | 1014.7 |
| 20260510140929 | 78 | 163 | 4.0 | 5.0 | 0.00 | 0.00 | 0.00 | 92 | 1014.6 |
| 20260510140420 | 78 | 167 | 7.0 | 10.0 | 0.00 | 0.00 | 0.00 | 94 | 1014.6 |
| 20260510135919 | 77 | 184 | 5.0 | 5.0 | 0.00 | 0.00 | 0.00 | 95 | 1014.4 |
| 20260510135415 | 77 | 166 | 5.0 | 7.0 | 0.00 | 0.00 | 0.00 | 96 | 1014.5 |
| 20260510134913 | 77 | 133 | 4.0 | 5.0 | 0.00 | 0.00 | 0.00 | 96 | 1014.5 |
| 20260510134409 | 76 | 173 | 3.0 | 3.0 | 0.00 | 0.00 | 0.00 | 97 | 1014.4 |
| 20260510133905 | 76 | 156 | 7.0 | 10.0 | 0.00 | 0.00 | 0.00 | 97 | 1014.5 |
| 20260510133402 | 76 | 138 | 4.0 | 5.0 | 0.00 | 0.00 | 0.00 | 97 | 1014.4 |
| 20260510132857 | 76 | 160 | 4.0 | 5.0 | 0.00 | 0.00 | 0.00 | 97 | 1014.5 |
| 20260510132355 | 76 | 112 | 4.0 | 5.0 | 0.00 | 0.00 | 0.00 | 97 | 1014.5 |
| 20260510131852 | 76 | 158 | 6.0 | 7.0 | 0.00 | 0.00 | 0.00 | 97 | 1014.3 |
| 20260510131350 | 76 | 134 | 3.0 | 3.0 | 0.00 | 0.00 | 0.00 | 97 | 1014.6 |
| 20260510130846 | 75 | 104 | 1.0 | 2.0 | 0.00 | 0.00 | 0.00 | 97 | 1014.3 |
| 20260510130343 | 75 | 120 | 1.0 | 2.0 | 0.00 | 0.00 | 0.00 | 97 | 1014.2 |
| 20260510125840 | 75 | 107 | 0.0 | 2.0 | 0.00 | 0.00 | 0.00 | 97 | 1014.1 |
| 20260510125336 | 75 | 103 | 0.0 | 0.0 | 0.00 | 0.00 | 0.00 | 97 | 1014.1 |
| 20260510124833 | 75 | 95 | 0.0 | 0.0 | 0.00 | 0.00 | 0.00 | 97 | 1014.0 |
| 20260510124330 | 75 | 94 | 0.0 | 0.0 | 0.00 | 0.00 | 0.00 | 97 | 1013.9 |
| 20260510123826 | 75 | 89 | 0.0 | 0.0 | 0.00 | 0.00 | 0.00 | 97 | 1013.9 |
| 20260510123321 | 74 | 92 | 0.0 | 0.0 | 0.00 | 0.00 | 0.00 | 97 | 1013.7 |
| 20260510122818 | 74 | 94 | 0.0 | 0.0 | 0.00 | 0.00 | 0.00 | 97 | 1013.7 |
| 20260510122314 | 74 | 91 | 0.0 | 0.0 | 0.00 | 0.00 | 0.00 | 97 | 1013.8 |
| 20260510121810 | 74 | 92 | 2.0 | 3.0 | 0.00 | 0.00 | 0.00 | 97 | 1013.8 |
| 20260510121308 | 74 | 97 | 2.0 | 2.0 | 0.00 | 0.00 | 0.00 | 97 | 1013.4 |
| 20260510120805 | 74 | 100 | 0.0 | 0.0 | 0.00 | 0.00 | 0.00 | 97 | 1013.6 |
| 20260510120301 | 74 | 95 | 1.0 | 2.0 | 0.00 | 0.00 | 0.00 | 97 | 1013.5 |
| 20260510115757 | 74 | 94 | 0.0 | 0.0 | 0.00 | 0.00 | 0.00 | 97 | 1013.4 |
| 20260510115256 | 74 | 93 | 0.0 | 0.0 | 0.00 | 0.00 | 0.00 | 97 | 1013.7 |
| 20260510114756 | 74 | 91 | 0.0 | 0.0 | 0.00 | 0.00 | 0.00 | 97 | 1013.5 |
| 20260510114254 | 73 | 81 | 0.0 | 0.0 | 0.00 | 0.00 | 0.00 | 97 | 1013.6 |
| 20260510113754 | 73 | 81 | 0.0 | 0.0 | 0.00 | 0.00 | 0.00 | 97 | 1013.6 |
| 20260510113251 | 73 | 83 | 0.0 | 0.0 | 0.00 | 0.00 | 0.00 | 97 | 1013.5 |
| 20260510112747 | 73 | 82 | 0.0 | 0.0 | 0.00 | 0.00 | 0.00 | 97 | 1013.4 |
| 20260510112244 | 73 | 69 | 0.0 | 0.0 | 0.00 | 0.00 | 0.00 | 97 | 1013.3 |
| 20260510111740 | 73 | 69 | 0.0 | 0.0 | 0.00 | 0.00 | 0.00 | 97 | 1013.5 |
| 20260510111237 | 73 | 69 | 0.0 | 0.0 | 0.00 | 0.00 | 0.00 | 97 | 1013.3 |
| 20260510110737 | 72 | 70 | 0.0 | 0.0 | 0.00 | 0.00 | 0.00 | 97 | 1013.6 |
| 20260510110235 | 72 | 78 | 0.0 | 0.0 | 0.00 | 0.00 | 0.00 | 97 | 1013.3 |
| 20260510105734 | 72 | 78 | 0.0 | 0.0 | 0.00 | 0.00 | 0.00 | 97 | 1013.5 |
| 20260510105229 | 72 | 68 | 0.0 | 0.0 | 0.00 | 0.00 | 0.00 | 97 | 1013.5 |
| 20260510104726 | 72 | 76 | 0.0 | 0.0 | 0.00 | 0.00 | 0.00 | 97 | 1013.3 |
| 20260510104224 | 72 | 69 | 0.0 | 2.0 | 0.00 | 0.00 | 0.00 | 97 | 1013.3 |
| 20260510103720 | 72 | 61 | 2.0 | 2.0 | 0.00 | 0.00 | 0.00 | 97 | 1013.2 |
| 20260510103217 | 72 | 71 | 0.0 | 0.0 | 0.00 | 0.00 | 0.00 | 96 | 1013.1 |
| 20260510102717 | 72 | 74 | 0.0 | 0.0 | 0.00 | 0.00 | 0.00 | 96 | 1013.0 |
| 20260510102213 | 72 | 75 | 0.0 | 0.0 | 0.00 | 0.00 | 0.00 | 96 | 1013.3 |
| 20260510101711 | 72 | 75 | 0.0 | 0.0 | 0.00 | 0.00 | 0.00 | 96 | 1013.3 |
| 20260510101209 | 72 | 75 | 0.0 | 0.0 | 0.00 | 0.00 | 0.00 | 96 | 1013.3 |
| 20260510100704 | 73 | 74 | 0.0 | 0.0 | 0.00 | 0.00 | 0.00 | 96 | 1013.4 |
| 20260510100203 | 72 | 71 | 0.0 | 0.0 | 0.00 | 0.00 | 0.00 | 96 | 1013.4 |
| 20260510095658 | 72 | 67 | 1.0 | 2.0 | 0.00 | 0.00 | 0.00 | 96 | 1013.6 |
| 20260510095153 | 72 | 67 | 0.0 | 0.0 | 0.00 | 0.00 | 0.00 | 96 | 1013.4 |
| 20260510094651 | 72 | 62 | 1.0 | 2.0 | 0.00 | 0.00 | 0.00 | 96 | 1013.6 |
| 20260510094148 | 72 | 48 | 2.0 | 2.0 | 0.00 | 0.00 | 0.00 | 96 | 1013.4 |
| 20260510093644 | 72 | 86 | 0.0 | 0.0 | 0.00 | 0.00 | 0.00 | 96 | 1013.3 |
| 20260510093142 | 72 | 91 | 0.0 | 0.0 | 0.00 | 0.00 | 0.00 | 96 | 1013.2 |
| 20260510092638 | 72 | 107 | 0.0 | 0.0 | 0.00 | 0.00 | 0.00 | 96 | 1013.3 |
| 20260510092133 | 72 | 107 | 0.0 | 0.0 | 0.00 | 0.00 | 0.00 | 96 | 1013.1 |
| 20260510091629 | 71 | 122 | 0.0 | 0.0 | 0.00 | 0.00 | 0.00 | 96 | 1013.2 |
| 20260510091125 | 71 | 122 | 0.0 | 0.0 | 0.00 | 0.00 | 0.00 | 96 | 1013.4 |
| 20260510090617 | 71 | 122 | 0.0 | 0.0 | 0.00 | 0.00 | 0.00 | 96 | 1013.3 |
| 20260510090113 | 71 | 122 | 0.0 | 0.0 | 0.00 | 0.00 | 0.00 | 96 | 1013.2 |
| 20260510085608 | 71 | 122 | 0.0 | 0.0 | 0.00 | 0.00 | 0.00 | 96 | 1013.2 |
| 20260510085104 | 71 | 122 | 0.0 | 0.0 | 0.00 | 0.00 | 0.00 | 96 | 1013.1 |
| 20260510084600 | 72 | 132 | 0.0 | 0.0 | 0.00 | 0.00 | 0.00 | 95 | 1013.2 |
| 20260510084057 | 72 | 134 | 0.0 | 0.0 | 0.00 | 0.00 | 0.00 | 96 | 1012.9 |
| 20260510083553 | 72 | 123 | 0.0 | 0.0 | 0.00 | 0.00 | 0.00 | 96 | 1013.0 |
| 20260510083050 | 72 | 122 | 0.0 | 0.0 | 0.00 | 0.00 | 0.00 | 95 | 1013.1 |
| 20260510082547 | 72 | 122 | 0.0 | 0.0 | 0.00 | 0.00 | 0.00 | 95 | 1013.0 |
| 20260510082042 | 72 | 123 | 0.0 | 0.0 | 0.00 | 0.00 | 0.00 | 95 | 1013.2 |
| 20260510081537 | 72 | 138 | 0.0 | 0.0 | 0.00 | 0.00 | 0.00 | 95 | 1013.0 |
| 20260510081033 | 72 | 150 | 1.0 | 2.0 | 0.00 | 0.00 | 0.00 | 95 | 1013.1 |
| 20260510080532 | 72 | 131 | 0.0 | 0.0 | 0.00 | 0.00 | 0.00 | 95 | 1013.1 |
| 20260510080030 | 72 | 133 | 0.0 | 0.0 | 0.00 | 0.00 | 0.00 | 95 | 1013.2 |
| 20260510075527 | 72 | 129 | 0.0 | 0.0 | 0.00 | 0.00 | 0.00 | 95 | 1013.2 |
| 20260510075023 | 73 | 130 | 0.0 | 0.0 | 0.00 | 0.00 | 0.00 | 95 | 1013.4 |
| 20260510074521 | 73 | 151 | 1.0 | 2.0 | 0.00 | 0.00 | 0.00 | 95 | 1013.5 |
| 20260510074016 | 73 | 139 | 3.0 | 3.0 | 0.00 | 0.00 | 0.00 | 95 | 1013.7 |
| 20260510073513 | 73 | 122 | 0.0 | 2.0 | 0.00 | 0.00 | 0.00 | 95 | 1013.6 |
| 20260510073010 | 72 | 100 | 2.0 | 2.0 | 0.00 | 0.00 | 0.00 | 95 | 1013.7 |
| 20260510072506 | 72 | 87 | 0.0 | 0.0 | 0.00 | 0.00 | 0.00 | 95 | 1014.0 |
| 20260510072001 | 72 | 98 | 0.0 | 0.0 | 0.00 | 0.00 | 0.00 | 95 | 1013.7 |
| 20260510071458 | 72 | 95 | 0.0 | 0.0 | 0.00 | 0.00 | 0.00 | 95 | 1013.8 |
| 20260510070956 | 72 | 106 | 2.0 | 2.0 | 0.00 | 0.00 | 0.00 | 94 | 1013.7 |
| 20260510070453 | 72 | 89 | 0.0 | 0.0 | 0.00 | 0.00 | 0.00 | 94 | 1013.7 |
| 20260510065949 | 72 | 76 | 0.0 | 0.0 | 0.00 | 0.00 | 0.00 | 94 | 1013.9 |
| 20260510065446 | 72 | 79 | 1.0 | 2.0 | 0.00 | 0.00 | 0.00 | 94 | 1014.0 |
| 20260510064942 | 72 | 92 | 3.0 | 3.0 | 0.00 | 0.00 | 0.00 | 94 | 1013.7 |
| 20260510064440 | 72 | 100 | 1.0 | 2.0 | 0.00 | 0.00 | 0.00 | 94 | 1013.8 |
| 20260510063936 | 72 | 86 | 0.0 | 0.0 | 0.00 | 0.00 | 0.00 | 94 | 1013.9 |
| 20260510063432 | 72 | 92 | 0.0 | 0.0 | 0.00 | 0.00 | 0.00 | 94 | 1013.6 |
| 20260510062930 | 72 | 88 | 0.0 | 0.0 | 0.00 | 0.00 | 0.00 | 94 | 1013.7 |
| 20260510062425 | 72 | 76 | 0.0 | 0.0 | 0.00 | 0.00 | 0.00 | 94 | 1013.8 |
| 20260510061921 | 72 | 55 | 1.0 | 2.0 | 0.00 | 0.00 | 0.00 | 94 | 1013.6 |
| 20260510061418 | 72 | 116 | 0.0 | 0.0 | 0.00 | 0.00 | 0.00 | 94 | 1013.7 |
| 20260510060914 | 72 | 127 | 0.0 | 0.0 | 0.00 | 0.00 | 0.00 | 93 | 1013.5 |
| 20260510060410 | 72 | 117 | 0.0 | 0.0 | 0.00 | 0.00 | 0.00 | 93 | 1013.6 |
| 20260510055907 | 72 | 147 | 1.0 | 2.0 | 0.00 | 0.00 | 0.00 | 93 | 1013.5 |
| 20260510055402 | 72 | 163 | 1.0 | 2.0 | 0.00 | 0.00 | 0.00 | 93 | 1013.3 |
| 20260510054900 | 72 | 162 | 0.0 | 0.0 | 0.00 | 0.00 | 0.00 | 93 | 1013.2 |
| 20260510054356 | 72 | 142 | 0.0 | 0.0 | 0.00 | 0.00 | 0.00 | 93 | 1013.5 |
| 20260510053851 | 73 | 160 | 0.0 | 0.0 | 0.00 | 0.00 | 0.00 | 92 | 1013.5 |
| 20260510053347 | 73 | 135 | 0.0 | 0.0 | 0.00 | 0.00 | 0.00 | 92 | 1013.7 |
| 20260510052843 | 73 | 130 | 0.0 | 0.0 | 0.00 | 0.00 | 0.00 | 92 | 1013.7 |
| 20260510052339 | 73 | 145 | 2.0 | 2.0 | 0.00 | 0.00 | 0.00 | 91 | 1013.7 |
| 20260510051836 | 73 | 144 | 2.0 | 3.0 | 0.00 | 0.00 | 0.00 | 91 | 1013.3 |
| 20260510051332 | 74 | 151 | 2.0 | 3.0 | 0.00 | 0.00 | 0.00 | 91 | 1013.5 |
| 20260510050830 | 74 | 125 | 3.0 | 3.0 | 0.00 | 0.00 | 0.00 | 91 | 1013.5 |
| 20260510050326 | 74 | 97 | 3.0 | 5.0 | 0.00 | 0.00 | 0.00 | 91 | 1013.7 |
| 20260510045823 | 74 | 119 | 1.0 | 2.0 | 0.00 | 0.39 | 0.39 | 91 | 1013.3 |
| 20260510045320 | 74 | 146 | 5.0 | 5.0 | 0.00 | 0.39 | 0.39 | 91 | 1013.5 |
| 20260510044817 | 74 | 145 | 2.0 | 3.0 | 0.00 | 0.39 | 0.39 | 90 | 1013.2 |
| 20260510044314 | 74 | 103 | 2.0 | 2.0 | 0.00 | 0.39 | 0.39 | 90 | 1013.4 |
| 20260510043810 | 74 | 107 | 3.0 | 3.0 | 0.00 | 0.39 | 0.39 | 90 | 1013.6 |
| 20260510043306 | 74 | 86 | 5.0 | 7.0 | 0.00 | 0.39 | 0.39 | 90 | 1013.5 |
| 20260510042804 | 74 | 77 | 3.0 | 5.0 | 0.00 | 0.39 | 0.39 | 90 | 1013.5 |
| 20260510042259 | 74 | 90 | 1.0 | 2.0 | 0.00 | 0.39 | 0.39 | 89 | 1013.7 |
| 20260510041756 | 74 | 65 | 2.0 | 2.0 | 0.00 | 0.39 | 0.39 | 89 | 1013.5 |
| 20260510041254 | 74 | 77 | 3.0 | 5.0 | 0.00 | 0.39 | 0.39 | 89 | 1013.5 |
| 20260510040751 | 74 | 127 | 4.0 | 5.0 | 0.00 | 0.39 | 0.39 | 88 | 1013.2 |
| 20260510040248 | 74 | 111 | 3.0 | 5.0 | 0.00 | 0.39 | 0.39 | 88 | 1013.1 |
| 20260510035742 | 74 | 100 | 2.0 | 3.0 | 0.00 | 0.39 | 0.39 | 88 | 1013.2 |
| 20260510035233 | 75 | 100 | 2.0 | 3.0 | 0.00 | 0.39 | 0.39 | 87 | 1013.0 |
| 20260510034729 | 75 | 130 | 4.0 | 5.0 | 0.00 | 0.39 | 0.39 | 87 | 1013.1 |
| 20260510034228 | 75 | 103 | 5.0 | 7.0 | 0.00 | 0.39 | 0.39 | 86 | 1013.1 |
| 20260510033723 | 75 | 84 | 1.0 | 2.0 | 0.00 | 0.39 | 0.39 | 86 | 1013.0 |
| 20260510033221 | 75 | 136 | 4.0 | 5.0 | 0.00 | 0.39 | 0.39 | 86 | 1012.7 |
| 20260510032717 | 75 | 137 | 2.0 | 3.0 | 0.00 | 0.39 | 0.39 | 85 | 1012.8 |
| 20260510032213 | 75 | 125 | 3.0 | 3.0 | 0.00 | 0.39 | 0.39 | 85 | 1012.8 |
| 20260510031708 | 75 | 133 | 4.0 | 5.0 | 0.00 | 0.39 | 0.39 | 85 | 1012.6 |
| 20260510031204 | 75 | 155 | 3.0 | 3.0 | 0.00 | 0.39 | 0.39 | 85 | 1012.4 |
| 20260510030703 | 76 | 152 | 3.0 | 3.0 | 0.00 | 0.39 | 0.39 | 84 | 1012.3 |
| 20260510030202 | 76 | 126 | 1.0 | 2.0 | 0.00 | 0.39 | 0.39 | 84 | 1012.2 |
| 20260510025659 | 76 | 163 | 3.0 | 3.0 | 0.00 | 0.39 | 0.39 | 83 | 1012.4 |
| 20260510025156 | 76 | 203 | 3.0 | 5.0 | 0.00 | 0.39 | 0.39 | 82 | 1012.0 |
| 20260510024653 | 77 | 181 | 5.0 | 7.0 | 0.00 | 0.39 | 0.39 | 82 | 1011.9 |
| 20260510024149 | 77 | 172 | 3.0 | 3.0 | 0.00 | 0.39 | 0.39 | 81 | 1011.8 |
| 20260510023644 | 77 | 170 | 7.0 | 10.0 | 0.00 | 0.39 | 0.39 | 80 | 1012.0 |
| 20260510023142 | 77 | 139 | 2.0 | 3.0 | 0.00 | 0.39 | 0.39 | 80 | 1012.0 |
| 20260510022637 | 77 | 180 | 3.0 | 3.0 | 0.00 | 0.39 | 0.39 | 79 | 1012.0 |
| 20260510022132 | 78 | 146 | 4.0 | 5.0 | 0.00 | 0.39 | 0.39 | 78 | 1012.0 |
| 20260510021628 | 78 | 148 | 3.0 | 3.0 | 0.00 | 0.39 | 0.39 | 78 | 1011.9 |
| 20260510021126 | 78 | 131 | 6.0 | 9.0 | 0.00 | 0.39 | 0.39 | 77 | 1012.0 |
| 20260510020620 | 78 | 163 | 5.0 | 5.0 | 0.00 | 0.39 | 0.39 | 76 | 1011.7 |
| 20260510020115 | 78 | 153 | 4.0 | 5.0 | 0.00 | 0.39 | 0.39 | 75 | 1011.8 |
| 20260510015612 | 79 | 141 | 3.0 | 3.0 | 0.00 | 0.39 | 0.39 | 75 | 1011.7 |
| 20260510015108 | 79 | 126 | 4.0 | 7.0 | 0.00 | 0.39 | 0.39 | 74 | 1011.7 |
| 20260510014604 | 79 | 129 | 3.0 | 3.0 | 0.00 | 0.39 | 0.39 | 73 | 1011.8 |
| 20260510014101 | 80 | 155 | 4.0 | 5.0 | 0.00 | 0.39 | 0.39 | 72 | 1011.4 |
| 20260510013555 | 80 | 137 | 4.0 | 5.0 | 0.00 | 0.39 | 0.39 | 72 | 1011.4 |
| 20260510013052 | 80 | 152 | 4.0 | 5.0 | 0.00 | 0.39 | 0.39 | 71 | 1011.4 |
| 20260510012545 | 80 | 123 | 7.0 | 9.0 | 0.00 | 0.39 | 0.39 | 70 | 1011.4 |
| 20260510012042 | 80 | 144 | 3.0 | 3.0 | 0.00 | 0.39 | 0.39 | 70 | 1011.4 |
| 20260510011542 | 81 | 149 | 5.0 | 9.0 | 0.00 | 0.39 | 0.39 | 69 | 1011.4 |
| 20260510011038 | 81 | 144 | 9.0 | 12.0 | 0.00 | 0.39 | 0.39 | 69 | 1011.1 |
| 20260510010535 | 82 | 83 | 8.0 | 12.0 | 0.00 | 0.39 | 0.39 | 68 | 1011.3 |
| 20260510010032 | 82 | 139 | 9.0 | 12.0 | 0.00 | 0.39 | 0.39 | 67 | 1011.2 |
| 20260510005527 | 82 | 135 | 5.0 | 7.0 | 0.00 | 0.39 | 0.39 | 67 | 1011.1 |
| 20260510005025 | 83 | 148 | 10.0 | 14.0 | 0.00 | 0.39 | 0.39 | 65 | 1011.3 |
| 20260510004523 | 83 | 161 | 6.0 | 9.0 | 0.00 | 0.39 | 0.39 | 66 | 1011.0 |
| 20260510004021 | 83 | 95 | 10.0 | 14.0 | 0.00 | 0.39 | 0.39 | 64 | 1011.1 |
| 20260510003517 | 84 | 121 | 4.0 | 5.0 | 0.00 | 0.39 | 0.39 | 65 | 1011.0 |
| 20260510003013 | 84 | 162 | 8.0 | 14.0 | 0.00 | 0.39 | 0.39 | 63 | 1011.2 |
| 20260510002508 | 84 | 94 | 6.0 | 7.0 | 0.00 | 0.39 | 0.39 | 64 | 1011.0 |
| 20260510002005 | 84 | 101 | 7.0 | 10.0 | 0.00 | 0.39 | 0.39 | 64 | 1011.1 |
| 20260510001503 | 85 | 139 | 7.0 | 9.0 | 0.00 | 0.39 | 0.39 | 65 | 1011.3 |
| 20260510001001 | 85 | 146 | 13.0 | 15.0 | 0.00 | 0.39 | 0.39 | 64 | 1011.2 |
| 20260510000456 | 86 | 146 | 12.0 | 15.0 | 0.00 | 0.39 | 0.39 | 64 | 1011.1 |
| 20260509235952 | 85 | 145 | 11.0 | 15.0 | 0.00 | 0.39 | 0.39 | 65 | 1011.0 |
| 20260509235449 | 86 | 177 | 11.0 | 15.0 | 0.00 | 0.39 | 0.39 | 65 | 1011.0 |
| 20260509234945 | 86 | 139 | 16.0 | 21.0 | 0.00 | 0.39 | 0.39 | 64 | 1011.0 |
| 20260509234443 | 86 | 140 | 8.0 | 12.0 | 0.00 | 0.39 | 0.39 | 65 | 1010.8 |
| 20260509233941 | 86 | 107 | 12.0 | 15.0 | 0.00 | 0.39 | 0.39 | 64 | 1011.1 |
| 20260509233438 | 86 | 143 | 8.0 | 10.0 | 0.00 | 0.39 | 0.39 | 65 | 1011.0 |
| 20260509232933 | 87 | 94 | 13.0 | 21.0 | 0.00 | 0.39 | 0.39 | 65 | 1011.2 |
| 20260509232432 | 88 | 98 | 12.0 | 12.0 | 0.00 | 0.39 | 0.39 | 63 | 1011.1 |
| 20260509231927 | 88 | 126 | 7.0 | 9.0 | 0.00 | 0.39 | 0.39 | 61 | 1010.9 |
| 20260509231424 | 88 | 128 | 4.0 | 5.0 | 0.00 | 0.39 | 0.39 | 61 | 1010.8 |
| 20260509230922 | 88 | 80 | 10.0 | 21.0 | 0.00 | 0.39 | 0.39 | 61 | 1011.0 |
| 20260509230419 | 89 | 75 | 6.0 | 9.0 | 0.00 | 0.39 | 0.39 | 60 | 1010.9 |
| 20260509225915 | 89 | 115 | 9.0 | 12.0 | 0.00 | 0.39 | 0.39 | 60 | 1011.0 |
| 20260509225411 | 89 | 113 | 9.0 | 14.0 | 0.00 | 0.39 | 0.39 | 60 | 1011.0 |
| 20260509224908 | 89 | 197 | 11.0 | 12.0 | 0.00 | 0.39 | 0.39 | 60 | 1011.0 |
| 20260509224403 | 89 | 138 | 6.0 | 9.0 | 0.00 | 0.39 | 0.39 | 60 | 1011.0 |
| 20260509223901 | 90 | 146 | 13.0 | 15.0 | 0.00 | 0.39 | 0.39 | 59 | 1010.9 |
| 20260509223357 | 91 | 180 | 5.0 | 7.0 | 0.00 | 0.39 | 0.39 | 57 | 1010.9 |
| 20260509222854 | 90 | 91 | 3.0 | 3.0 | 0.00 | 0.39 | 0.39 | 57 | 1010.9 |
| 20260509222349 | 91 | 86 | 1.0 | 2.0 | 0.00 | 0.39 | 0.39 | 57 | 1010.9 |
| 20260509221844 | 91 | 140 | 3.0 | 5.0 | 0.00 | 0.39 | 0.39 | 56 | 1010.7 |
| 20260509221342 | 91 | 102 | 3.0 | 3.0 | 0.00 | 0.39 | 0.39 | 56 | 1011.0 |
| 20260509220837 | 91 | 175 | 6.0 | 7.0 | 0.00 | 0.39 | 0.39 | 56 | 1011.0 |
| 20260509220334 | 93 | 251 | 7.0 | 10.0 | 0.00 | 0.39 | 0.39 | 56 | 1011.0 |
| 20260509215829 | 93 | 140 | 2.0 | 3.0 | 0.00 | 0.39 | 0.39 | 53 | 1010.9 |
| 20260509215326 | 93 | 180 | 2.0 | 2.0 | 0.00 | 0.39 | 0.39 | 53 | 1010.9 |
| 20260509214823 | 92 | 208 | 5.0 | 5.0 | 0.00 | 0.39 | 0.39 | 54 | 1010.9 |
| 20260509214320 | 92 | 205 | 3.0 | 3.0 | 0.00 | 0.39 | 0.39 | 55 | 1010.9 |
| 20260509213817 | 92 | 95 | 5.0 | 7.0 | 0.00 | 0.39 | 0.39 | 54 | 1010.9 |
| 20260509213312 | 92 | 102 | 0.0 | 0.0 | 0.00 | 0.39 | 0.39 | 53 | 1010.7 |
| 20260509212810 | 92 | 212 | 5.0 | 7.0 | 0.00 | 0.39 | 0.39 | 56 | 1011.0 |
| 20260509212308 | 93 | 230 | 6.0 | 7.0 | 0.00 | 0.39 | 0.39 | 54 | 1011.0 |
| 20260509211803 | 92 | 221 | 4.0 | 5.0 | 0.00 | 0.39 | 0.39 | 56 | 1011.4 |
| 20260509211259 | 93 | 187 | 5.0 | 5.0 | 0.00 | 0.39 | 0.39 | 55 | 1011.4 |
| 20260509210756 | 92 | 295 | 1.0 | 2.0 | 0.00 | 0.39 | 0.39 | 55 | 1011.2 |
| 20260509210254 | 91 | 140 | 3.0 | 5.0 | 0.00 | 0.39 | 0.39 | 56 | 1011.2 |
| 20260509205753 | 93 | 147 | 7.0 | 7.0 | 0.00 | 0.39 | 0.39 | 55 | 1011.2 |
| 20260509205248 | 92 | 91 | 2.0 | 2.0 | 0.00 | 0.39 | 0.39 | 56 | 1011.1 |
| 20260509204744 | 91 | 7 | 3.0 | 3.0 | 0.00 | 0.39 | 0.39 | 57 | 1011.2 |
| 20260509204241 | 92 | 244 | 2.0 | 5.0 | 0.00 | 0.39 | 0.39 | 56 | 1011.5 |
| 20260509203737 | 93 | 233 | 6.0 | 7.0 | 0.00 | 0.39 | 0.39 | 56 | 1011.4 |
| 20260509203235 | 91 | 210 | 3.0 | 5.0 | 0.00 | 0.39 | 0.39 | 58 | 1011.4 |
| 20260509202730 | 93 | 239 | 3.0 | 5.0 | 0.00 | 0.39 | 0.39 | 56 | 1011.5 |
| 20260509202226 | 90 | 102 | 2.0 | 2.0 | 0.00 | 0.39 | 0.39 | 57 | 1011.5 |
| 20260509201721 | 92 | 212 | 3.0 | 3.0 | 0.00 | 0.39 | 0.39 | 57 | 1011.5 |
| 20260509201218 | 91 | 166 | 3.0 | 3.0 | 0.00 | 0.39 | 0.39 | 58 | 1011.6 |
| 20260509200715 | 89 | 102 | 3.0 | 3.0 | 0.00 | 0.39 | 0.39 | 58 | 1011.7 |
| 20260509200209 | 91 | 221 | 7.0 | 9.0 | 0.00 | 0.39 | 0.39 | 58 | 1011.7 |
| 20260509195705 | 91 | 265 | 4.0 | 5.0 | 0.00 | 0.39 | 0.39 | 56 | 1011.6 |
| 20260509195201 | 91 | 223 | 7.0 | 10.0 | 0.00 | 0.39 | 0.39 | 58 | 1011.8 |
| 20260509194655 | 92 | 281 | 3.0 | 5.0 | 0.00 | 0.39 | 0.39 | 57 | 1011.7 |
| 20260509194152 | 89 | 300 | 5.0 | 5.0 | 0.00 | 0.39 | 0.39 | 57 | 1011.9 |
| 20260509193648 | 89 | 304 | 4.0 | 5.0 | 0.00 | 0.39 | 0.39 | 58 | 1011.8 |
| 20260509193144 | 90 | 261 | 5.0 | 7.0 | 0.00 | 0.39 | 0.39 | 58 | 1011.6 |
| 20260509192640 | 89 | 204 | 3.0 | 3.0 | 0.00 | 0.39 | 0.39 | 59 | 1011.9 |
| 20260509192135 | 90 | 271 | 8.0 | 10.0 | 0.00 | 0.39 | 0.39 | 59 | 1011.7 |
| 20260509191629 | 89 | 208 | 5.0 | 5.0 | 0.00 | 0.39 | 0.39 | 60 | 1011.9 |
| 20260509191127 | 89 | 279 | 2.0 | 2.0 | 0.00 | 0.39 | 0.39 | 61 | 1012.0 |
| 20260509190623 | 89 | 221 | 4.0 | 5.0 | 0.00 | 0.39 | 0.39 | 62 | 1011.8 |
| 20260509190120 | 90 | 282 | 7.0 | 7.0 | 0.00 | 0.39 | 0.39 | 57 | 1011.8 |
| 20260509185618 | 89 | 315 | 6.0 | 9.0 | 0.00 | 0.39 | 0.39 | 60 | 1011.9 |
| 20260509185114 | 88 | 238 | 3.0 | 3.0 | 0.00 | 0.39 | 0.39 | 59 | 1011.9 |
| 20260509184612 | 89 | 289 | 8.0 | 9.0 | 0.00 | 0.39 | 0.39 | 58 | 1011.9 |
| 20260509184108 | 91 | 274 | 7.0 | 9.0 | 0.00 | 0.39 | 0.39 | 58 | 1012.1 |
| 20260509183604 | 89 | 200 | 5.0 | 7.0 | 0.00 | 0.39 | 0.39 | 59 | 1012.1 |
| 20260509183100 | 89 | 142 | 1.0 | 2.0 | 0.00 | 0.39 | 0.39 | 59 | 1012.2 |
| 20260509182556 | 88 | 236 | 3.0 | 3.0 | 0.00 | 0.39 | 0.39 | 61 | 1012.2 |
| 20260509182053 | 87 | 141 | 3.0 | 3.0 | 0.00 | 0.39 | 0.39 | 58 | 1012.4 |
| 20260509181552 | 87 | 248 | 5.0 | 7.0 | 0.00 | 0.39 | 0.39 | 59 | 1012.5 |
| 20260509181048 | 88 | 226 | 5.0 | 5.0 | 0.00 | 0.39 | 0.39 | 63 | 1012.4 |
| 20260509180544 | 89 | 233 | 4.0 | 5.0 | 0.00 | 0.39 | 0.39 | 62 | 1012.5 |
| 20260509180042 | 87 | 129 | 2.0 | 3.0 | 0.00 | 0.39 | 0.39 | 59 | 1012.6 |
| 20260509175537 | 89 | 202 | 3.0 | 3.0 | 0.00 | 0.39 | 0.39 | 59 | 1012.4 |
| 20260509175035 | 86 | 44 | 2.0 | 2.0 | 0.00 | 0.39 | 0.39 | 60 | 1012.8 |